Location: Blienschwiller
(48.3416°N, 7.4182°E)
Time: 04:49:23
(UTC+00:00)

Cosmos 2251 Rocket - Pass Details

Date: 18 February 2020
Orbit: 764 x 793 km, 74.0° (Epoch: 29 March)

Event Time Altitude Azimuth Distance (km) Brightness Sun altitude
Exits shadow 03:28:25 49° 105° (ESE) 991 4.2 -31.1°
Drops below altitude 10° 03:33:29 10° 32° (NNE) 2,336 6.6 -30.3°
Sets 03:35:57 0° 27° (NNE) 3,273 7.4 -29.9°
